Weather History for HTMG - March, 2014

Change the Weather History Date:

Sunday, March 2, 2014

  Actual Average Record
Temperature  
Mean Temperature 81 °F -  
Max Temperature 91 °F - - ()
Min Temperature 71 °F - - ()
Cooling Degree Days 16    
Growing Degree Days 31 (Base 50)    
Moisture  
Dew Point 68 °F    
Average Humidity 67    
Maximum Humidity 94    
Minimum Humidity 32    
Precipitation  
Precipitation 0.12 in - - ()
Sea Level Pressure  
Sea Level Pressure 29.93 in    
Wind  
Wind Speed 1 mph ()    
Max Wind Speed 9 mph    
Max Gust Speed -    
Visibility 9.1 miles    
Events Rain , Thunderstorm    
T = Trace of Precipitation, MM = Missing Value Source: Averaged Metar Reports

Daily Weather History Graph

Daily Weather History Graph

Search for Another Location

Airport or City:

Trip Planner

Search our weather history database for the weather conditions in past years. The results will help you decide how hot, cold, wet, or windy it might be!

Date:

Astronomy

Mar. 02, 2014 Rise Set
Actual Time 6:34 AM EAT 6:48 PM EAT
Civil Twilight 6:13 AM EAT 7:09 PM EAT
Nautical Twilight 5:49 AM EAT 7:33 PM EAT
Astronomical Twilight 5:24 AM EAT 7:58 PM EAT
Moon 7:20 AM EAT (3/2) 7:43 PM EAT (3/2)
Length of Visible Light 12h 55m
Length of Day
12h 13m
New Moon, 2% of the Moon is Illuminated
Mar 2
New Moon
Mar 8
First Quarter
Mar 16
Full
Mar 24
Last Quarter
Mar 30
New

Hourly Weather History & Observations

Time (EAT) Temp. Heat Index Dew Point Humidity Pressure Visibility Wind Dir Wind Speed Gust Speed Precip Events Conditions
12:00 AM 76 °F - 70 °F 75%  in 19 mi Calm Calm - -  
12:00 AM 77.0 °F - 69.8 °F 78% 29.95 in 6.2 mi Calm Calm - N/A   Clear
1:00 AM 75.2 °F - 69.8 °F 83% 29.95 in 6.2 mi Calm Calm - N/A   Clear
2:00 AM 73.4 °F - 69.8 °F 88% 29.95 in 6.2 mi Calm Calm - N/A   Clear
3:00 AM 72 °F - 69 °F 89%  in 6 mi Calm Calm - -   Scattered Clouds
4:00 AM 73.4 °F - 68.0 °F 83% 29.95 in 6.2 mi Calm Calm - N/A   Partly Cloudy
5:00 AM 71.6 °F - 68.0 °F 88% 29.95 in 6.2 mi Calm Calm - N/A   Partly Cloudy
6:00 AM 72 °F - 69 °F 86%  in 19 mi Calm Calm - -   Partly Cloudy
6:00 AM 71.6 °F - 68.0 °F 88% 29.95 in 6.2 mi Calm Calm - N/A   Scattered Clouds
7:00 AM 71.6 °F - 68.0 °F 88% 29.95 in 6.2 mi Calm Calm - N/A   Scattered Clouds
8:00 AM 73.4 °F - 71.6 °F 94% 30.01 in 6.2 mi Calm Calm - N/A   Scattered Clouds
9:00 AM 91 °F - 65 °F 32%  in 19 mi Calm Calm - -   Mostly Cloudy
9:00 AM 75.2 °F - 71.6 °F 89% 30.01 in 6.2 mi Calm Calm - N/A   Mostly Cloudy
10:00 AM 80.6 °F 83.2 °F 68.0 °F 65% 30.01 in 6.2 mi Calm Calm - N/A   Mostly Cloudy
11:00 AM 84.2 °F 88.4 °F 69.8 °F 62% 30.01 in 6.2 mi Calm Calm - N/A   Mostly Cloudy
12:00 PM 89 °F - 66 °F 36%  in 19 mi NNE 9.2 mph - -   Mostly Cloudy
12:00 PM 86.0 °F 89.4 °F 68.0 °F 55% 29.98 in 6.2 mi Calm Calm - N/A   Mostly Cloudy
1:00 PM 87.8 °F 91.4 °F 68.0 °F 52% 29.92 in 6.2 mi Calm Calm - N/A   Mostly Cloudy
2:00 PM 91.4 °F 93.2 °F 64.4 °F 41% 29.89 in 6.2 mi Calm Calm - N/A   Scattered Clouds
3:00 PM 91 °F - 65 °F 32%  in 19 mi Calm Calm - -   Mostly Cloudy
3:00 PM 91.4 °F 93.2 °F 64.4 °F 41% 29.86 in 6.2 mi Calm Calm - N/A   Mostly Cloudy
4:00 PM 91.4 °F 95.4 °F 68.0 °F 46% 29.86 in 6.2 mi Calm Calm - N/A   Mostly Cloudy
5:00 PM 91.4 °F 93.2 °F 64.4 °F 41% 29.89 in 6.2 mi Calm Calm - N/A   Mostly Cloudy
6:00 PM 89 °F - 66 °F 36%  in 19 mi NNE 9.2 mph - -   Mostly Cloudy
6:00 PM 89.6 °F 92.2 °F 66.2 °F 46% 29.83 in 6.2 mi NNE 9.2 mph - N/A   Partly Cloudy
7:00 PM 77.0 °F - 68.0 °F 74% 29.89 in 6.2 mi Calm Calm - N/A Rain Light Rain
8:00 PM 77.0 °F - 68.0 °F 74% 29.89 in 6.2 mi South 9.2 mph - N/A Rain , Thunderstorm Thunderstorms and Rain
9:00 PM 74 °F - 67 °F 74%  in 19 mi Calm Calm - -   Scattered Clouds
9:00 PM 73.4 °F - 68.0 °F 83% 29.92 in 6.2 mi Calm Calm - N/A   Partly Cloudy
10:00 PM 73.4 °F - 68.0 °F 83% 29.92 in 6.2 mi Calm Calm - N/A   Partly Cloudy
11:00 PM 73.4 °F - 69.8 °F 88% 29.92 in 6.2 mi Calm Calm - N/A   Clear